Flag for Germany Weather past 2 weeks in Hamm, North Rhine-Westphalia, Germany

Now
86 °F

Passing clouds.


Feels Like: 85 °F
Forecast: 68 / 93 °F
Wind: 12 mph from Northeast

Location: Dortmund / Wickede

Current Time: Jul 1, 2015 at 2:18:23 PM

Latest Report: Jul 1, 2015 at 1:50 PM


Visibility: N/A

Pressure: 30.07 "Hg

Humidity: 35%

Dew point: 55 °F

Location of HammLocation

Historic Weather in Hamm — Graph

°F

Hamm temperature yesterday

Maximum temperature yesterday: 79 °F (at 3:50 PM)
Minimum temperature yesterday: 52 °F (at 5:50 AM)
Average temperature yesterday: 71 °F

Past Weeks' High & Low Weather Summary

 TemperatureHumidityPressure
High86 °F (Jul 1, 1:20 PM)94% (Jun 20, 6:20 AM)30.27 "Hg (Jun 20, 6:20 AM)
Low43 °F (Jun 17, 5:20 AM)30% (Jun 30, 5:50 PM)29.68 "Hg (Jun 22, 7:50 PM)
Average62 °F64%30.06 "Hg
* Reported Jun 16 1:20 PM — Jul 1 1:20 PM, Hamm, Weather by CustomWeather, © 2015

Note: Actual official high and low records may vary slightly from our data, if they occured in-between our weather recording intervals... More about our weather records

Advertising

Hamm weather history for previous 24 hours

 ConditionsComfort  
Time TempWeatherWind HumidityBarometerVisibility
1:20 PM
Wed, Jul 1
86 °FPassing clouds.8 mph35%30.09 "HgN/A
12:50 PM84 °FPassing clouds.8 mph40%30.09 "HgN/A
12:20 PM84 °FPassing clouds.7 mph40%30.09 "HgN/A
11:50 AM84 °FSunny.8 mph31%30.09 "Hg10 mi
11:20 AM82 °FPassing clouds.8 mph30%30.09 "HgN/A
10:50 AM82 °FPassing clouds.7 mph32%30.09 "HgN/A
10:20 AM81 °FSunny.6 mph37%30.09 "Hg10 mi
9:50 AM79 °FSunny.6 mph51%30.09 "Hg10 mi
9:20 AM73 °FPassing clouds.5 mph57%30.12 "HgN/A
8:50 AM72 °FPassing clouds.5 mph57%30.12 "HgN/A
8:20 AM68 °FSunny.3 mph60%30.09 "Hg10 mi
7:50 AM68 °FSunny.1 mph64%30.09 "Hg10 mi
7:20 AM66 °FSunny.2 mph68%30.09 "Hg10 mi
6:50 AM63 °FSunny.2 mph68%30.09 "Hg10 mi
6:20 AM59 °FSunny.1 mph72%30.09 "Hg10 mi
5:50 AM57 °FClear.2 mph72%30.09 "Hg10 mi
5:20 AM59 °FClear.3 mph72%30.09 "Hg10 mi
10:50 PM
Tue, Jun 30
68 °FClear.7 mph53%30.12 "Hg10 mi
10:20 PM68 °FSunny.6 mph53%30.12 "Hg10 mi
9:50 PM70 °FSunny.6 mph50%30.12 "Hg10 mi
9:20 PM73 °FSunny.7 mph41%30.12 "Hg10 mi
8:50 PM75 °FSunny.7 mph36%30.12 "Hg10 mi
8:20 PM77 °FSunny.9 mph32%30.12 "Hg10 mi
7:50 PM77 °FSunny.10 mph30%30.12 "Hg10 mi
6:50 PM79 °FPassing clouds.8 mph30%30.12 "HgN/A
6:20 PM79 °FPassing clouds.8 mph32%30.12 "HgN/A
5:50 PM79 °FPassing clouds.7 mph30%30.12 "HgN/A
4:50 PM79 °FSunny.7 mph32%30.12 "Hg10 mi
4:20 PM79 °FSunny.6 mph32%30.15 "Hg10 mi
3:50 PM79 °FSunny.6 mph32%30.15 "Hg10 mi
2:50 PM77 °FPassing clouds.5 mph36%30.15 "HgN/A
2:20 PM77 °FPassing clouds.5 mph39%30.15 "HgN/A
Weather by CustomWeather, © 2015

See weather overviewHow to use our weather pages